Weather History for Pocatello, ID

Change the Weather History Date:

Monday, November 26, 2012

  Actual Average Record
Temperature  
Mean Temperature 32 °F 29 °F  
Max Temperature 40 °F 39 °F 63 °F (1998)
Min Temperature 23 °F 20 °F -14 °F (1993)
Degree Days  
Heating Degree Days 33 36  
Month to date heating degree days 652 774  
Since 1 July heating degree days 1350 1581  
Cooling Degree Days 0 0  
Month to date cooling degree days 0 0  
Year to date cooling degree days 560 392  
Moisture  
Dew Point 26 °F    
Average Humidity 78    
Maximum Humidity 92    
Minimum Humidity 64    
Precipitation  
Precipitation 0.00 in 0.04 in 0.82 in (1995)
Month to date precipitation 1.28 0.95  
Year to date precipitation 8.87 10.73  
Snow  
Snow 0.00 in - - ()
Month to date snowfall 4.9  
Since 1 July snowfall 7.1  
Since 1 September snowfall 7.1  
Snow Depth 0.00 in    
Sea Level Pressure  
Sea Level Pressure 30.32 in    
Wind  
Wind Speed 4 mph (SW)    
Max Wind Speed 12 mph    
Max Gust Speed 15 mph    
Visibility 10 miles    
Events      
T = Trace of Precipitation, MM = Missing Value Source: NWS Daily Summary

Daily Weather History Graph

Daily Weather History Graph

Search for Another Location

Airport:

Trip Planner

Search our weather history database for the weather conditions in past years. The results will help you decide how hot, cold, wet, or windy it might be!

Date:

Astronomy

Nov. 26, 2012 Rise Set
Actual Time 7:36 AM MST 4:58 PM MST
Civil Twilight 7:05 AM MST 5:30 PM MST
Nautical Twilight 6:30 AM MST 6:05 PM MST
Astronomical Twilight 5:56 AM MST 6:39 PM MST
Moon 3:54 PM MST (11/26) 5:48 AM MST (11/26)
Length of Visible Light 10h 24m
Length of Day
9h 22m
Waxing Gibbous, 97% of the Moon is Illuminated
Nov 26
Waxing Gibbous
Nov 28
Full
Dec 6
Last Quarter
Dec 13
New
Dec 19
First Quarter

Hourly Weather History & Observations

Time (MST) Temp. Windchill Dew Point Humidity Pressure Visibility Wind Dir Wind Speed Gust Speed Precip Events Conditions
12:42 AM 32.0 °F 24.8 °F 26.6 °F 80% 30.23 in 10.0 mi SW 8.1 mph - N/A   Overcast
12:53 AM 32.0 °F 23.6 °F 27.0 °F 82% 30.27 in 10.0 mi SW 10.4 mph - N/A   Overcast
1:53 AM 32.0 °F 24.8 °F 26.1 °F 79% 30.27 in 10.0 mi SW 8.1 mph - N/A   Overcast
2:53 AM 32.0 °F 25.6 °F 26.1 °F 79% 30.29 in 10.0 mi SW 6.9 mph - N/A   Overcast
3:53 AM 32.0 °F 26.4 °F 26.1 °F 79% 30.29 in 10.0 mi WSW 5.8 mph - N/A   Overcast
4:53 AM 30.9 °F 25.2 °F 26.1 °F 82% 30.29 in 10.0 mi SW 5.8 mph - N/A   Overcast
5:53 AM 30.0 °F 26.5 °F 26.1 °F 85% 30.32 in 10.0 mi SW 3.5 mph - N/A   Mostly Cloudy
6:53 AM 28.9 °F - 25.0 °F 85% 30.34 in 10.0 mi Calm Calm - N/A   Scattered Clouds
7:53 AM 25.0 °F 18.1 °F 23.0 °F 92% 30.37 in 10.0 mi SSW 5.8 mph - N/A   Partly Cloudy
8:53 AM 30.0 °F - 26.1 °F 85% 30.35 in 10.0 mi Calm Calm - N/A   Scattered Clouds
9:53 AM 32.0 °F - 26.1 °F 79% 30.37 in 10.0 mi Calm Calm - N/A   Scattered Clouds
10:53 AM 35.1 °F - 26.1 °F 70% 30.37 in 10.0 mi Calm Calm - N/A   Partly Cloudy
11:53 AM 37.0 °F 34.5 °F 27.0 °F 67% 30.35 in 10.0 mi Variable 3.5 mph - N/A   Scattered Clouds
12:53 PM 37.9 °F 34.4 °F 27.0 °F 65% 30.32 in 10.0 mi Variable 4.6 mph - N/A   Partly Cloudy
1:53 PM 39.0 °F 36.8 °F 28.0 °F 65% 30.30 in 10.0 mi NNE 3.5 mph - N/A   Partly Cloudy
2:53 PM 39.9 °F 35.1 °F 28.9 °F 65% 30.28 in 10.0 mi ENE 6.9 mph - N/A   Clear
3:53 PM 39.0 °F 34.0 °F 28.9 °F 67% 30.28 in 10.0 mi ENE 6.9 mph - N/A   Clear
4:53 PM 33.1 °F 28.7 °F 27.0 °F 78% 30.30 in 10.0 mi NNE 4.6 mph - N/A   Clear
5:53 PM 30.0 °F 24.1 °F 26.1 °F 85% 30.31 in 10.0 mi NE 5.8 mph - N/A   Clear
6:53 PM 28.9 °F 25.2 °F 26.1 °F 89% 30.32 in 10.0 mi ENE 3.5 mph - N/A   Clear
7:53 PM 28.0 °F - 26.1 °F 92% 30.33 in 10.0 mi Calm Calm - N/A   Clear
8:53 PM 27.0 °F 23.0 °F 25.0 °F 92% 30.32 in 10.0 mi NNE 3.5 mph - N/A   Clear
9:53 PM 26.1 °F - 24.1 °F 92% 30.35 in 10.0 mi Calm Calm - N/A   Clear
10:53 PM 25.0 °F - 21.9 °F 88% 30.33 in 10.0 mi Calm Calm - N/A   Clear
11:53 PM 24.1 °F - 21.0 °F 88% 30.33 in 9.0 mi Calm Calm - N/A   Clear